Date,TemperatureHighF,TemperatureAvgF,TemperatureLowF,DewpointHighF,DewpointAvgF,DewpointLowF,HumidityHigh,HumidityAvg,HumidityLow,PressureMaxIn,PressureMinIn,WindSpeedMaxMPH,WindSpeedAvgMPH,GustSpeedMaxMPH,PrecipitationSumIn
2013-1-1,50.5,47.2,43.8,47.6,39.7,29.3,90,77,51,29.81,29.64,5,0,5,0.26
2013-1-2,50.1,45.8,41.7,47.3,41.3,37.2,90,84,74,29.90,29.62,6,0,6,0.34
2013-1-3,47.3,41.6,33.4,38.3,35.9,29.6,86,81,66,29.97,29.85,0,0,0,0.00
2013-1-4,56.6,40.5,28.4,32.9,27.6,23.5,87,63,34,30.03,29.90,5,0,7,0.02
2013-1-5,55.5,40.3,28.9,32.3,27.3,22.1,78,61,38,30.10,29.97,0,0,0,0.00
2013-1-6,51.4,43.5,37.9,39.0,35.3,29.5,85,73,60,29.95,29.77,4,0,4,0.00
2013-1-7,60.4,42.3,31.4,38.3,32.4,27.7,87,70,41,30.14,29.89,5,0,8,0.00
2013-1-8,57.0,44.1,32.5,40.5,35.9,28.1,86,74,51,30.17,30.07,3,0,3,0.00
2013-1-9,70.1,52.2,37.5,52.1,43.8,34.0,87,74,52,30.16,30.06,3,0,5,0.00
2013-1-10,72.5,55.9,48.0,51.2,45.5,37.1,87,70,46,30.24,30.12,5,0,6,0.00
2013-1-11,50.5,47.7,42.6,47.0,41.9,33.8,90,81,56,30.14,29.86,4,0,4,0.20
2013-1-12,74.8,58.6,49.1,64.2,54.2,46.3,92,86,69,29.89,29.81,0,0,0,0.02
2013-1-13,77.1,64.5,54.5,63.4,57.7,51.9,92,80,59,29.85,29.76,5,1,7,0.00
2013-1-14,68.7,64.4,60.6,62.5,58.9,55.4,86,82,79,29.87,29.79,6,0,6,0.00
2013-1-15,64.9,47.5,45.1,59.9,44.0,41.8,90,88,82,29.95,29.76,7,0,8,0.00
2013-1-16,50.0,46.6,44.2,47.4,43.9,41.5,91,90,89,29.78,29.68,2,0,2,0.06
2013-1-17,50.7,46.9,33.9,48.1,44.1,30.9,91,90,88,29.86,29.59,18,1,18,0.57
2013-1-18,54.3,38.9,30.9,37.3,30.7,27.2,90,75,43,30.24,29.85,4,0,4,0.83
2013-1-19,52.8,35.1,28.9,34.1,27.8,24.9,86,76,47,30.21,29.90,3,0,3,0.00
2013-1-20,68.9,50.1,38.8,42.6,34.9,30.1,76,58,35,29.86,29.69,5,0,10,0.00
2013-1-21,62.4,46.6,31.6,35.6,30.1,21.0,85,56,32,29.80,29.57,5,0,7,0.00
2013-1-22,47.4,36.4,28.0,21.8,12.9,6.9,51,39,21,30.00,29.66,6,0,10,0.00
2013-1-23,27.5,24.4,21.7,11.9,10.4,8.7,62,56,46,30.04,29.99,0,0,0,0.00
2013-1-25,28.4,27.0,24.9,24.7,19.4,6.8,86,74,43,30.18,29.82,4,0,5,0.00
2013-1-26,43.1,32.9,28.0,35.3,27.8,24.0,87,82,65,30.11,29.80,2,0,2,0.04
2013-1-27,48.3,34.7,25.3,30.6,26.6,21.7,88,74,48,30.30,30.10,4,0,8,0.00
2013-1-28,50.7,43.2,34.5,45.3,36.0,27.5,84,76,64,30.21,29.94,6,0,6,0.02
2013-1-29,74.4,59.4,46.4,59.4,51.7,43.0,89,77,58,29.94,29.78,7,1,10,0.00
2013-1-30,71.4,67.0,61.3,63.6,61.1,56.1,87,82,73,29.78,29.11,15,5,19,0.36
2013-1-31,60.8,48.1,37.4,55.9,32.3,23.2,86,56,33,29.73,29.20,16,1,16,0.49
2013-2-1,47.1,37.5,27.3,28.8,18.0,9.1,66,47,27,30.10,29.60,6,0,11,0.00
2013-2-2,44.9,35.1,21.9,35.5,16.0,10.0,77,47,31,30.11,29.73,5,0,9,0.00
2013-2-3,53.4,43.5,35.2,36.0,31.3,25.3,83,64,42,29.72,29.56,6,0,7,0.00
2013-2-4,52.3,40.0,28.7,28.4,25.2,22.6,80,57,36,29.86,29.70,4,0,7,0.00
2013-2-5,64.2,48.7,40.1,38.3,33.5,28.0,71,57,37,29.72,29.59,5,0,9,0.00
2013-2-6,69.0,49.2,34.3,39.8,32.3,27.8,85,57,26,29.99,29.67,3,0,6,0.00
2013-2-7,48.9,43.2,37.5,40.6,36.8,32.8,89,79,66,30.03,29.69,8,0,9,0.38
2013-2-8,56.3,46.5,40.1,46.8,39.8,29.1,89,78,60,29.76,29.52,5,1,8,0.99
2013-2-9,59.0,43.0,31.2,31.3,27.0,24.2,81,56,29,30.06,29.76,3,0,7,0.00
2013-2-10,55.7,41.7,28.5,40.3,26.0,22.0,82,57,31,30.20,29.91,4,0,7,0.02
2013-2-11,62.4,56.8,45.6,58.1,52.9,40.5,91,87,82,29.91,29.63,9,1,9,0.07
2013-2-12,67.1,54.5,45.6,52.4,39.2,32.3,88,60,31,29.79,29.61,4,0,4,0.00
2013-2-13,50.1,46.5,42.9,44.8,42.3,37.2,89,85,61,29.65,29.34,4,0,5,0.20
2013-2-14,54.5,43.5,33.4,36.8,34.0,29.9,88,71,46,29.78,29.55,3,0,7,0.00
2013-2-15,66.9,47.2,31.8,42.9,34.2,28.3,88,64,35,29.80,29.64,4,0,7,0.02
2013-2-16,46.0,37.8,31.8,36.0,32.0,26.9,88,80,65,29.68,29.54,1,0,4,0.07
2013-2-17,41.5,33.3,26.4,27.1,18.0,12.3,81,56,32,29.85,29.63,6,1,16,0.13
2013-2-19,51.4,45.7,37.7,47.7,40.7,28.9,89,83,70,29.85,29.57,7,0,8,0.12
2013-2-20,56.8,42.8,30.7,36.6,25.2,18.5,88,54,27,29.85,29.67,7,0,9,0.00
2013-2-21,60.0,43.4,28.0,29.6,23.4,18.9,75,48,27,29.96,29.81,3,0,6,0.00
2013-2-22,43.5,37.6,33.9,34.2,31.6,24.0,89,80,46,30.06,29.84,5,0,8,0.16
2013-2-23,43.8,40.7,37.0,41.1,37.7,34.0,90,89,89,29.82,29.53,4,0,4,1.28
2013-2-24,66.0,51.2,40.2,47.9,39.5,31.5,90,68,36,29.75,29.51,5,0,9,0.10
2013-2-25,43.8,39.1,34.5,32.2,26.2,22.8,74,60,49,29.94,29.75,7,0,8,0.00
2013-2-26,57.7,45.6,36.5,55.1,40.6,25.8,92,83,62,29.85,29.26,11,1,11,0.04
2013-2-27,63.3,50.6,43.3,44.0,40.7,37.9,90,71,44,29.50,29.33,10,0,10,0.04
2013-2-28,50.5,42.6,34.5,38.3,32.9,27.9,87,70,45,29.56,29.41,5,0,9,0.00
2013-3-1,51.4,40.9,30.5,33.6,29.8,26.3,85,66,45,29.62,29.54,8,0,8,0.00
2013-3-2,52.1,40.2,29.8,31.7,27.3,21.7,84,62,42,29.63,29.51,4,0,7,0.00
2013-3-3,51.9,38.0,28.2,28.6,22.6,19.0,75,55,37,29.69,29.55,6,0,8,0.00
2013-3-4,55.0,39.0,26.4,24.7,20.1,17.0,69,49,28,29.82,29.68,9,0,9,0.00
2013-3-5,49.6,43.4,37.0,42.9,34.6,20.5,89,73,46,29.78,29.26,4,0,5,0.26
2013-3-6,47.8,43.2,38.1,44.6,33.6,28.0,90,70,54,29.73,29.21,10,1,12,0.28
2013-3-7,55.5,42.9,32.9,35.8,30.3,26.1,81,62,45,29.94,29.73,5,0,7,0.00
2013-3-8,59.5,44.7,30.9,33.3,28.1,24.8,80,55,34,29.99,29.85,5,0,8,0.00
2013-3-9,66.7,48.3,32.5,37.0,30.7,26.2,79,54,30,30.04,29.94,5,0,6,0.00
2013-3-10,69.9,51.2,33.6,37.2,30.9,27.0,85,52,23,30.03,29.91,2,0,4,0.00
2013-3-11,69.6,55.9,41.5,53.9,44.1,27.7,83,66,39,29.94,29.65,12,1,12,0.00
2013-3-12,75.5,62.2,50.7,62.4,53.8,34.6,90,75,51,29.66,29.47,11,1,12,0.48
2013-3-13,60.2,48.4,37.2,34.7,30.2,21.7,80,51,31,29.84,29.65,5,0,8,0.00
2013-3-14,57.2,42.7,31.1,29.2,22.6,18.8,62,46,29,29.96,29.81,4,0,7,0.00
2013-3-15,63.3,48.0,30.9,37.2,29.7,22.4,75,51,34,29.90,29.61,5,0,10,0.00
2013-3-16,78.4,62.9,51.0,52.0,45.3,36.1,66,54,38,29.60,29.37,8,0,10,0.00
2013-3-17,61.7,53.5,42.0,50.8,45.3,37.4,87,74,62,29.88,29.54,10,1,10,0.00
2013-3-18,44.4,41.3,38.8,40.8,37.9,35.4,89,88,86,29.91,29.56,4,0,7,0.44
2013-3-19,70.3,53.4,41.5,48.8,36.3,20.0,90,59,25,29.73,29.52,12,0,12,0.44
2013-3-20,56.8,48.2,40.8,25.5,20.9,16.0,46,34,27,29.82,29.49,4,0,5,0.00
2013-3-21,51.6,42.0,32.5,31.0,22.8,14.3,72,48,30,29.68,29.44,7,0,7,0.00
2013-3-22,55.5,40.2,26.0,25.6,19.1,14.6,69,45,26,29.80,29.67,4,0,9,0.00
2013-3-23,56.1,46.7,40.6,32.8,28.4,24.6,68,50,36,29.77,29.61,0,0,5,0.00
2013-3-24,42.0,39.5,37.5,36.9,34.4,30.2,88,82,69,29.64,29.29,6,0,11,0.04
2013-3-25,49.8,42.0,37.2,38.9,31.0,24.6,88,67,43,29.53,29.27,9,0,12,0.04
2013-3-26,54.1,43.3,33.6,34.2,28.7,25.0,75,57,44,29.82,29.53,6,0,7,0.00
2013-3-27,56.4,43.7,32.5,31.6,27.1,24.0,77,54,33,29.93,29.82,8,0,8,0.00
2013-3-28,60.4,45.3,31.8,33.4,27.5,24.1,74,52,31,30.00,29.85,6,0,8,0.00
2013-3-29,62.9,47.6,31.6,34.5,29.4,25.7,82,53,31,30.04,29.88,6,0,9,0.00
2013-3-30,69.2,55.7,42.2,45.0,37.9,30.5,76,53,31,29.95,29.79,5,0,6,0.00
2013-3-31,69.0,57.3,48.7,58.9,50.7,42.9,90,79,65,29.82,29.52,8,0,8,0.39
2013-4-1,75.7,62.3,54.6,53.9,48.2,39.5,90,64,34,29.68,29.52,7,0,9,0.41
2013-4-2,64.2,49.9,40.1,38.2,32.2,29.2,75,52,29,29.87,29.69,5,0,9,0.00
2013-4-3,65.1,49.9,42.0,35.5,27.7,23.2,61,43,26,30.00,29.84,4,0,5,0.00
2013-4-4,47.4,43.2,39.7,39.2,32.4,24.8,89,67,46,30.06,29.63,4,0,11,0.53
2013-4-5,64.0,52.9,40.1,49.5,44.6,37.1,89,75,56,29.73,29.59,1,0,2,0.57
2013-4-6,68.1,56.9,42.0,41.9,35.6,29.6,86,48,31,29.98,29.73,8,0,9,0.00
2013-4-7,73.0,56.5,38.8,47.4,40.2,33.5,82,57,37,30.00,29.82,6,0,8,0.00
2013-4-8,79.8,66.1,54.8,58.8,53.4,49.6,87,66,43,29.89,29.76,6,0,8,0.00
2013-4-9,85.6,72.3,59.1,61.4,58.0,55.3,88,63,40,29.90,29.77,5,0,7,0.00
2013-4-10,87.4,74.1,62.9,63.7,60.1,57.4,84,64,42,29.82,29.65,4,0,10,0.00
2013-4-11,80.4,71.9,62.4,66.5,61.1,57.5,86,70,51,29.71,29.51,10,1,13,0.00
2013-4-12,80.2,72.0,65.1,68.5,63.0,53.0,89,74,53,29.53,29.32,7,1,11,0.24
2013-4-13,75.0,67.0,54.1,52.0,45.1,42.5,69,47,33,29.71,29.48,4,0,4,0.00
2013-4-14,81.3,66.0,48.3,53.8,46.3,42.9,85,53,28,29.82,29.72,5,0,6,0.00
2013-4-15,70.7,65.9,60.4,58.1,56.2,51.6,84,71,61,29.92,29.73,4,0,6,0.02
2013-4-16,77.1,66.5,58.1,62.2,58.2,53.9,89,76,58,30.01,29.90,3,0,5,0.00
2013-4-17,81.1,70.6,60.2,66.2,61.8,56.5,89,75,58,29.94,29.82,6,0,6,0.00
2013-4-18,78.0,70.3,61.5,62.3,60.0,56.9,86,71,55,29.91,29.75,6,0,7,0.00
2013-4-19,82.5,71.3,65.1,68.4,64.3,60.9,90,80,60,29.76,29.43,7,1,12,0.51
2013-4-20,64.9,56.3,49.4,62.0,43.3,37.2,90,64,40,29.98,29.54,3,0,5,0.60
2013-4-21,60.6,50.7,43.5,43.1,40.2,37.7,87,68,49,30.19,29.98,4,0,11,0.00
2013-4-22,60.9,50.6,39.2,45.6,39.3,32.0,82,66,49,30.18,29.97,8,1,10,0.00
2013-4-23,64.2,54.9,47.8,51.5,47.2,44.0,87,76,59,29.98,29.84,5,0,7,0.00
2013-4-24,75.9,63.6,51.6,58.0,53.5,47.7,88,71,52,29.87,29.68,5,0,6,0.00
2013-4-25,68.9,61.9,54.1,56.6,47.8,40.2,80,61,43,29.98,29.72,4,0,6,0.00
2013-4-26,72.5,60.4,49.6,49.5,44.6,38.6,87,60,33,30.13,29.98,9,0,9,0.00
2013-4-27,73.0,63.3,54.1,53.4,47.1,42.9,76,57,38,30.09,29.96,0,0,4,0.00
2013-4-28,61.3,58.4,55.9,54.6,50.3,43.3,90,75,58,29.98,29.82,0,0,0,0.91
2013-4-29,70.3,62.7,55.4,63.1,58.5,52.5,92,86,74,29.82,29.67,0,0,0,1.91
2013-4-30,65.4,61.6,57.9,59.2,57.3,53.7,90,86,78,29.89,29.71,6,0,7,0.00
2013-5-1,61.1,58.7,57.2,56.9,55.0,53.5,89,87,85,30.03,29.87,6,0,9,0.00
2013-5-2,62.7,59.0,56.1,56.8,54.6,51.6,89,85,80,30.03,29.97,8,0,9,0.00
2013-5-3,68.0,58.4,49.6,55.8,49.7,43.9,88,74,53,29.98,29.87,5,0,11,0.00
2013-5-4,63.8,56.2,50.0,52.5,48.5,44.0,85,76,64,29.92,29.78,6,0,10,0.00
2013-5-5,59.3,55.5,50.5,54.6,50.5,45.5,87,83,78,29.81,29.69,9,0,11,0.00
2013-5-6,66.0,60.1,56.1,62.9,57.3,53.2,92,90,86,29.71,29.54,4,0,5,0.06
2013-5-7,68.7,59.2,51.6,58.7,52.6,49.0,92,80,51,29.66,29.56,0,0,2,0.09
2013-5-8,70.3,61.4,54.5,59.6,55.3,50.5,90,81,65,29.73,29.64,0,0,0,0.08
2013-5-9,78.2,66.7,56.3,60.9,57.6,53.4,91,75,52,29.78,29.69,2,0,2,0.11
2013-5-10,83.8,72.5,58.2,64.6,59.9,54.1,87,66,47,29.78,29.65,3,0,4,0.00
2013-5-11,80.7,72.8,67.8,67.8,63.3,59.1,86,73,56,29.68,29.51,1,0,3,0.02
2013-5-12,73.2,66.6,57.9,63.1,52.4,38.1,87,62,42,29.74,29.50,4,0,4,0.04
2013-5-13,67.4,57.8,47.3,43.0,39.9,37.3,78,53,36,29.89,29.74,1,0,6,0.00
2013-5-14,69.6,58.2,42.6,46.7,41.8,37.3,85,57,37,29.98,29.79,0,0,3,0.00
2013-5-15,83.8,60.4,56.3,64.0,47.5,43.3,77,64,50,29.79,29.61,0,0,0,0.00
2013-5-16,83.8,75.2,66.3,64.9,62.3,59.8,80,65,48,29.70,29.61,0,0,2,0.00
2013-5-17,85.6,75.1,64.2,64.9,62.6,59.9,87,67,48,29.80,29.69,0,0,0,0.00
2013-5-18,77.3,70.7,64.9,68.8,64.6,60.3,89,81,67,29.87,29.78,1,0,5,0.41
2013-5-19,76.6,69.9,65.8,69.5,65.4,62.4,92,86,72,29.87,29.77,3,0,5,0.45
2013-5-20,73.9,69.4,66.7,69.8,66.5,64.2,92,90,85,29.83,29.74,0,0,3,1.69
2013-5-21,82.0,73.0,68.3,73.1,68.1,65.3,91,85,69,29.77,29.66,4,0,4,0.00
2013-5-22,81.6,74.2,68.5,69.8,67.3,65.1,90,80,64,29.76,29.62,3,0,4,0.00
2013-5-23,83.4,74.4,69.6,70.9,67.8,65.8,88,81,61,29.68,29.53,3,0,4,0.00
2013-5-24,74.8,66.2,54.6,65.3,54.7,43.2,89,68,43,29.89,29.53,6,0,8,0.00
2013-5-25,73.9,60.0,44.7,52.1,44.7,40.4,86,60,34,29.98,29.84,3,0,3,0.00
2013-5-26,75.0,62.0,49.6,53.3,48.5,43.9,82,63,40,29.99,29.89,0,0,0,0.00
2013-5-27,82.0,67.4,52.3,60.2,53.6,48.2,87,64,41,30.00,29.87,0,0,0,0.00
2013-5-28,85.2,73.7,64.0,69.2,63.3,55.1,86,71,57,29.97,29.86,3,0,3,0.00
2013-5-29,87.0,75.4,65.1,68.0,64.2,60.8,87,70,51,29.96,29.87,0,0,0,0.00
2013-5-30,87.4,75.8,65.3,69.9,64.9,61.0,87,70,49,29.99,29.88,0,0,0,0.00
2013-5-31,87.4,77.7,67.6,71.5,67.2,63.4,88,71,51,29.95,29.82,0,0,0,0.00
2013-6-1,88.8,78.2,68.7,72.2,67.1,64.6,88,70,53,29.86,29.74,5,0,5,0.00
2013-6-2,85.6,77.2,68.7,71.8,67.1,64.0,87,72,57,29.77,29.61,5,0,5,0.00
2013-6-3,81.3,73.3,67.2,73.7,68.9,64.2,91,86,73,29.67,29.55,6,0,6,0.49
2013-6-4,79.8,70.9,64.9,67.9,63.9,61.9,91,79,62,29.81,29.65,6,0,9,0.49
2013-6-5,82.0,73.1,65.1,64.5,60.6,56.8,85,66,47,29.85,29.73,0,0,5,0.00
2013-6-6,76.4,71.0,66.7,70.9,65.7,59.2,91,84,63,29.76,29.54,4,0,5,0.26
2013-6-7,73.2,70.1,68.7,70.7,67.6,66.2,93,92,91,29.56,29.23,4,0,5,0.14
2013-6-8,81.8,73.0,67.8,73.3,68.2,65.0,93,85,71,29.82,29.54,2,0,2,0.21
2013-6-9,87.6,76.3,67.4,75.3,69.4,64.7,92,81,62,29.88,29.77,0,0,0,0.02
2013-6-10,81.1,74.7,71.9,75.9,70.9,68.3,91,88,79,29.82,29.61,5,0,6,0.08
2013-6-11,86.1,76.4,69.6,71.8,67.8,66.1,90,76,56,29.67,29.61,5,0,5,0.08
2013-6-12,89.4,78.0,66.3,76.4,70.1,62.9,90,77,63,29.70,29.57,0,0,0,0.00
2013-6-13,94.4,83.4,75.0,78.7,73.9,70.9,88,75,53,29.58,29.33,3,0,6,0.00
2013-6-14,82.5,71.3,60.9,65.4,60.6,57.4,90,71,48,29.72,29.46,3,0,7,0.16
2013-6-15,86.3,72.6,60.2,67.8,61.9,56.9,89,71,49,29.84,29.73,3,0,3,0.00
2013-6-16,86.9,76.1,65.4,71.8,64.7,55.8,77,68,57,29.85,29.72,4,0,4,0.00
2013-6-17,83.8,76.5,70.8,73.5,68.6,64.4,83,77,67,29.76,29.65,0,0,2,0.00
2013-6-18,82.2,74.3,70.1,73.7,69.4,66.4,91,85,72,29.70,29.47,5,0,5,1.06
2013-6-19,82.7,73.3,66.2,70.0,66.4,63.4,91,80,63,29.83,29.59,4,0,8,1.06
2013-6-20,84.3,73.4,64.9,66.9,63.2,57.0,89,72,51,29.95,29.84,5,0,6,0.00
2013-6-21,84.0,71.4,59.7,65.2,59.7,54.5,85,68,45,29.98,29.90,5,0,7,0.00
2013-6-22,82.2,74.1,69.9,72.9,68.2,65.2,88,82,71,29.92,29.83,6,0,8,0.00
2013-6-23,85.8,76.4,69.6,75.6,70.2,66.2,90,82,66,29.92,29.84,0,0,0,0.00
2013-6-24,87.0,77.6,72.3,76.4,71.4,68.5,91,82,68,29.92,29.82,0,0,2,0.00
2013-6-25,87.9,76.7,70.3,79.3,70.7,66.7,90,82,70,29.85,29.73,0,0,1,0.02
2013-6-26,90.5,76.7,69.2,78.4,70.6,66.3,91,82,63,29.75,29.61,2,0,5,0.61
2013-6-27,87.4,75.0,67.6,77.8,70.4,64.8,93,86,68,29.64,29.44,4,0,4,0.05
2013-6-28,91.7,78.5,70.7,77.7,72.0,67.5,91,81,60,29.47,29.30,2,0,7,1.04
2013-6-29,83.1,75.3,68.7,75.4,70.8,66.2,93,86,74,29.45,29.33,0,0,0,1.61
2013-6-30,86.3,76.2,70.8,76.8,71.4,67.8,92,85,70,29.58,29.43,6,0,6,0.24
2013-7-1,79.8,74.6,69.6,74.8,70.9,67.1,93,89,80,29.71,29.56,6,0,6,0.02
2013-7-2,75.9,73.3,71.2,72.1,70.4,68.4,92,91,87,29.90,29.71,4,0,8,0.04
2013-7-3,86.1,75.6,73.0,77.7,72.1,70.9,93,89,74,29.95,29.87,2,0,5,0.06
2013-7-4,88.7,79.7,73.4,77.3,72.2,69.1,91,79,58,30.00,29.90,6,0,8,0.00
2013-7-5,90.3,81.7,73.2,76.9,72.9,69.8,90,76,60,29.99,29.88,3,0,4,0.00
2013-7-6,85.1,76.5,73.5,75.8,71.9,70.1,90,86,71,29.97,29.92,0,0,0,0.00
2013-7-7,87.6,79.2,71.4,76.8,72.3,68.0,90,80,67,29.91,29.78,4,0,7,0.00
2013-7-8,85.1,77.3,74.4,76.4,72.7,71.0,89,86,74,29.90,29.83,0,0,0,0.00
2013-7-9,87.6,77.0,72.8,78.4,72.1,68.7,92,85,70,29.88,29.78,4,0,4,0.00
2013-7-10,86.9,77.9,73.0,78.0,73.0,69.8,91,85,70,29.82,29.67,4,0,4,0.20
2013-7-11,79.5,73.7,72.5,74.4,70.8,69.9,92,91,84,29.71,29.61,0,0,0,0.25
2013-7-12,74.8,72.2,71.2,71.5,69.9,67.8,94,92,86,29.74,29.59,0,0,0,0.41
2013-7-13,78.4,73.5,70.7,75.6,70.6,67.6,92,91,89,29.89,29.73,5,0,5,0.02
2013-7-14,89.0,78.0,70.1,76.3,72.2,67.8,93,83,62,30.02,29.89,5,0,5,0.03
2013-7-15,88.8,74.7,70.7,76.0,70.9,67.9,92,88,61,30.04,29.96,1,0,2,0.00
2013-7-16,93.5,80.9,70.1,78.1,72.5,67.4,92,77,57,30.00,29.89,5,0,6,0.00
2013-7-17,94.4,83.3,75.0,78.7,74.1,71.9,91,75,55,29.94,29.82,5,0,5,0.00
2013-7-18,91.2,82.6,75.3,79.8,75.4,71.9,90,79,60,29.85,29.74,4,0,4,0.00
2013-7-19,91.0,82.3,75.5,79.8,74.7,71.4,90,79,65,29.82,29.70,4,0,4,0.00
2013-7-20,88.5,78.5,74.8,78.2,73.1,71.0,89,84,70,29.75,29.64,4,0,4,0.00
2013-7-21,87.4,78.7,73.7,77.3,73.0,69.8,89,83,69,29.72,29.61,4,0,4,0.03
2013-7-22,85.8,77.9,72.3,77.2,72.6,69.5,92,84,69,29.68,29.54,3,0,4,0.03
2013-7-23,91.5,79.5,74.4,76.6,72.8,70.7,89,81,61,29.57,29.44,4,0,4,0.00
2013-7-24,92.8,81.6,71.9,76.3,71.8,68.5,90,74,52,29.56,29.44,4,0,5,0.00
2013-7-25,78.9,74.5,70.3,71.1,68.2,65.7,88,81,71,29.75,29.53,4,0,8,0.00
2013-7-26,86.1,74.9,63.8,68.8,65.1,60.9,91,73,52,29.83,29.74,5,0,5,0.00
2013-7-27,88.1,75.6,68.3,72.7,68.1,64.8,91,79,52,29.77,29.66,4,0,6,0.20
2013-7-28,87.0,77.1,69.6,75.8,70.5,67.1,93,81,63,29.70,29.64,1,0,3,0.06
2013-7-29,78.6,72.3,70.3,71.9,69.3,67.7,92,90,71,29.83,29.71,2,0,4,0.37
2013-7-30,88.3,75.9,64.0,70.5,66.3,60.8,89,73,50,29.94,29.85,4,0,4,0.00
2013-7-31,83.1,77.3,71.2,74.6,70.7,67.8,90,81,67,29.86,29.73,1,0,3,0.06
2013-8-1,73.7,71.3,70.8,70.5,68.2,67.8,92,91,89,29.74,29.64,0,0,0,0.02
2013-8-2,90.1,77.6,67.8,74.8,69.9,65.3,93,78,56,29.74,29.62,0,0,0,0.08
2013-8-3,88.3,78.7,73.0,77.8,73.1,70.0,92,83,63,29.74,29.60,5,0,6,0.78
2013-8-4,84.9,75.9,69.6,73.5,68.0,61.5,93,78,53,29.75,29.60,8,0,8,0.78
2013-8-5,82.0,68.7,66.0,66.8,63.4,62.1,90,84,56,29.80,29.72,0,0,0,0.00
2013-8-6,80.4,72.4,67.8,71.6,66.2,63.7,91,81,72,29.78,29.71,2,0,3,0.14
2013-8-10,93.5,82.2,75.0,79.5,73.6,70.5,88,76,62,29.82,29.72,2,0,8,0.02
2013-8-11,92.8,77.4,72.1,78.4,71.9,69.3,91,84,63,29.83,29.72,0,0,0,0.02
2013-8-12,95.3,83.0,74.4,76.8,73.2,71.4,91,74,51,29.76,29.64,0,0,0,0.00
2013-8-13,90.1,78.4,71.4,78.8,73.5,68.6,92,85,66,29.69,29.49,0,0,0,0.35
2013-8-14,77.0,72.6,65.1,71.9,66.1,59.4,91,80,70,29.80,29.54,4,0,8,0.00
2013-8-15,80.2,67.3,61.3,63.5,58.8,56.8,86,75,52,29.88,29.79,1,0,1,0.00
2013-8-16,70.7,66.4,60.4,61.3,59.8,57.2,90,80,69,29.89,29.81,1,0,3,0.00
2013-8-17,71.2,67.5,64.2,68.7,64.2,60.1,93,89,84,29.89,29.82,2,0,3,0.22
2013-8-18,81.5,73.4,69.0,73.3,68.6,65.0,94,85,72,29.92,29.83,1,0,2,0.24
2013-8-19,74.1,70.3,67.4,70.8,67.3,64.6,93,90,86,29.91,29.81,0,0,0,0.31
2013-8-20,82.0,74.9,68.7,74.1,70.6,66.5,93,87,75,29.90,29.82,3,0,3,0.00
2013-8-21,90.3,76.9,71.2,77.5,71.8,68.1,92,85,64,29.94,29.82,4,0,4,0.04
2013-8-22,92.8,79.2,70.3,76.8,71.0,68.1,94,78,53,29.87,29.70,0,0,4,0.04
2013-8-23,89.2,77.4,69.4,75.2,70.4,66.0,90,80,60,29.79,29.64,2,0,4,0.00
2013-8-24,86.1,74.0,66.0,67.1,62.8,59.7,87,70,46,30.01,29.79,6,0,9,0.00
2013-8-25,82.9,71.0,61.8,65.1,60.3,57.4,89,71,48,30.11,30.00,7,0,7,0.00
2013-8-26,87.0,70.5,57.3,64.5,58.9,54.1,90,69,43,30.03,29.83,4,0,4,0.00
2013-8-27,91.2,76.7,64.9,73.2,66.5,58.2,82,72,54,29.85,29.67,0,0,2,0.00
2013-8-28,83.1,77.6,71.2,75.3,72.2,68.0,91,84,74,29.71,29.59,0,0,0,0.00
2013-8-29,89.2,80.1,75.0,75.9,72.4,69.3,87,78,62,29.73,29.56,6,0,6,0.00
2013-8-30,92.3,78.1,67.1,71.5,67.2,63.7,90,71,46,29.78,29.65,2,0,2,0.00
2013-8-31,90.1,78.9,69.9,74.6,69.8,65.5,91,75,57,29.70,29.58,5,0,5,0.00
2013-9-1,91.2,79.1,71.7,78.1,72.4,69.0,92,81,60,29.62,29.49,3,0,6,1.75
2013-9-2,88.8,77.8,70.3,78.3,72.3,68.0,94,84,68,29.61,29.51,0,0,0,1.75
2013-9-3,90.6,79.8,73.2,78.1,73.0,70.4,92,80,62,29.66,29.52,3,0,3,0.00
2013-9-4,88.8,77.1,68.7,74.2,69.2,63.6,90,77,60,29.80,29.66,4,0,5,0.00
2013-9-5,92.3,76.8,67.4,71.4,65.4,60.1,91,71,41,29.82,29.73,3,0,4,0.00
2013-9-6,85.8,73.2,65.4,67.0,62.0,58.1,85,69,51,29.90,29.79,5,0,6,0.00
2013-9-7,87.9,72.6,60.9,67.4,62.7,57.7,89,73,49,29.85,29.70,57,0,57,0.00
2013-9-8,92.1,76.3,65.4,66.9,63.8,61.1,88,68,40,29.71,29.62,3,0,3,0.00
2013-9-9,91.7,77.3,66.7,71.6,67.2,63.0,89,73,50,29.87,29.70,4,0,4,0.00
2013-9-10,94.2,79.7,69.0,73.9,68.9,65.6,90,71,46,29.95,29.86,2,0,2,0.00
2013-9-11,92.8,79.0,68.9,73.3,68.4,64.8,88,71,50,29.92,29.79,2,0,4,0.00
2013-9-12,92.8,79.1,71.2,74.9,69.9,66.6,87,74,55,29.79,29.53,4,0,4,0.00
2013-9-13,89.7,76.6,70.3,69.7,64.0,53.8,89,67,46,29.60,29.47,5,0,6,0.00
2013-9-14,81.5,68.6,60.8,56.0,53.5,48.9,77,60,40,29.85,29.60,5,0,7,0.00
2013-9-15,85.8,68.9,55.9,63.2,57.8,51.9,87,70,45,29.95,29.83,0,0,0,0.00
2013-9-16,87.9,74.8,68.5,73.2,65.1,57.7,92,74,49,29.91,29.75,4,0,8,0.33
2013-9-17,81.3,68.6,61.3,59.7,55.6,52.0,79,65,44,30.03,29.90,6,0,8,0.00
2013-9-18,79.3,63.3,53.2,55.7,52.3,49.1,87,69,42,30.02,29.88,3,0,4,0.00
2013-9-19,77.7,66.6,56.4,62.7,58.0,52.6,88,75,56,29.91,29.80,0,0,0,0.00
2013-9-20,68.7,67.2,64.0,65.3,62.6,59.2,90,85,74,29.81,29.69,0,0,0,0.20
2013-9-21,77.1,70.3,65.3,70.5,66.7,62.9,92,89,78,29.69,29.45,0,0,0,0.61
2013-9-22,79.7,68.8,62.2,65.1,61.3,56.9,93,78,54,29.61,29.43,6,0,9,1.34
2013-9-23,75.7,63.6,55.9,57.5,54.6,51.1,88,74,51,29.79,29.61,4,0,5,0.00
2013-9-24,77.7,64.1,55.7,61.7,56.6,52.2,90,78,57,29.82,29.67,2,0,3,0.00
2013-9-25,74.4,64.3,55.0,61.5,58.0,52.1,91,81,61,29.67,29.59,5,0,5,0.00
2013-9-26,76.8,67.1,59.3,61.3,58.2,54.6,89,75,48,29.74,29.59,5,0,5,0.00
2013-9-27,73.9,63.8,55.2,60.0,56.2,52.0,91,78,59,29.90,29.75,4,0,8,0.00
2013-9-28,73.0,62.2,52.5,57.3,54.3,49.3,90,76,56,29.97,29.87,6,0,6,0.00
2013-9-29,75.5,62.2,52.7,57.5,53.9,49.5,90,76,52,29.89,29.75,4,0,5,0.00
2013-9-30,76.6,63.0,53.2,61.4,55.1,50.0,91,77,52,29.82,29.71,4,0,6,0.00
2013-10-1,82.2,66.4,53.7,64.7,57.9,50.9,91,76,51,29.85,29.73,5,0,5,0.00
2013-10-2,84.2,70.4,60.0,64.8,60.5,56.5,90,73,49,29.85,29.76,3,0,4,0.00
2013-10-3,85.4,71.6,60.8,66.2,62.2,57.5,90,74,50,29.85,29.77,4,0,4,0.00
2013-10-4,85.8,73.7,64.0,69.1,64.4,60.4,90,74,53,29.86,29.76,0,0,0,0.00
2013-10-5,87.6,74.2,63.3,70.8,65.0,60.1,90,74,53,29.83,29.74,0,0,0,0.00
2013-10-6,83.4,73.6,65.8,71.6,67.7,62.4,92,83,62,29.79,29.65,3,0,6,0.00
2013-10-7,73.0,70.7,65.1,70.5,68.0,60.1,93,91,83,29.71,29.57,3,0,3,0.02
2013-10-8,64.9,60.2,58.8,59.3,51.2,47.2,84,72,65,29.91,29.69,10,2,11,0.02
2013-10-9,61.8,58.5,55.0,56.2,53.0,50.1,91,82,75,29.89,29.80,6,1,15,0.05
2013-10-10,60.8,57.1,54.1,58.1,54.5,51.4,93,91,90,29.80,29.65,8,0,11,0.23
2013-10-11,66.7,62.3,58.8,62.2,59.4,56.6,93,90,84,29.69,29.62,3,0,3,0.06
2013-10-12,67.6,64.2,61.5,63.9,61.3,58.8,92,90,88,29.79,29.67,4,0,4,0.02
2013-10-13,66.7,63.9,61.8,63.1,61.3,59.7,93,91,88,29.91,29.79,6,0,9,0.08
2013-10-14,64.9,62.0,57.9,61.5,59.4,55.3,94,91,87,29.95,29.89,6,0,7,0.22
2013-10-15,70.3,62.2,54.6,61.8,57.4,52.3,93,85,71,29.91,29.77,4,0,9,0.00
2013-10-16,69.0,65.0,62.4,63.3,61.1,59.7,92,87,79,29.78,29.67,0,0,0,0.00
2013-10-17,74.3,67.1,60.9,66.3,62.5,58.3,92,85,73,29.69,29.56,4,0,4,0.00
2013-10-18,67.6,63.2,57.9,63.7,54.9,47.8,92,75,59,29.76,29.59,4,0,4,0.00
2013-10-19,69.0,63.6,60.0,64.5,59.5,55.0,90,86,78,29.69,29.54,1,0,1,0.00
2013-10-20,64.9,56.3,48.0,57.7,47.9,42.1,91,75,51,29.84,29.62,5,0,8,0.00
2013-10-21,67.8,54.1,41.7,50.9,46.5,38.7,90,77,52,29.87,29.72,0,0,0,0.00
2013-10-22,62.7,58.1,53.7,57.8,53.9,49.1,90,86,82,29.72,29.52,0,0,0,0.00
2013-10-23,67.2,59.1,49.1,56.9,49.1,36.2,93,72,42,29.72,29.41,6,0,8,0.00
2013-10-24,59.5,48.4,38.4,39.7,37.0,33.6,83,66,44,29.90,29.72,5,0,10,0.00
2013-10-25,57.0,47.7,39.0,38.2,33.8,31.5,77,60,42,30.07,29.90,4,0,5,0.00
2013-10-26,59.0,45.3,32.0,37.9,33.8,28.3,87,66,43,30.07,29.79,1,0,2,0.00
2013-10-27,68.3,54.4,43.7,47.1,42.4,37.3,83,65,43,29.84,29.75,0,0,0,0.00
2013-10-28,66.7,55.9,46.4,55.8,50.0,42.7,89,81,67,29.98,29.83,0,0,0,0.00
2013-10-29,73.0,60.2,52.1,58.7,53.7,49.2,91,80,59,30.05,29.96,0,0,0,0.00
2013-10-30,71.4,62.3,54.1,60.2,56.3,50.9,92,81,64,30.01,29.88,0,0,0,0.00
2013-10-31,74.1,66.0,58.6,63.5,57.9,55.1,89,76,61,29.90,29.65,4,0,6,0.00
2013-11-1,72.6,67.9,61.8,66.1,64.1,59.2,93,88,78,29.64,29.39,8,1,10,0.91
2013-11-2,71.4,61.4,52.7,58.9,53.1,45.7,93,76,47,29.66,29.42,4,0,4,0.03
2013-11-3,64.9,52.0,43.5,45.3,41.4,38.8,85,69,44,30.08,29.66,4,0,7,0.03
2013-11-4,58.2,46.6,39.3,39.6,35.7,32.5,84,67,45,30.26,30.08,4,0,5,0.00
2013-11-5,57.7,49.3,39.7,49.2,42.1,33.2,84,77,67,30.25,30.13,4,0,6,0.00
2013-11-6,71.2,57.8,46.0,57.1,51.0,42.7,89,79,58,30.13,29.83,2,0,5,0.00
2013-11-7,68.5,60.1,45.6,62.3,53.7,36.2,94,80,54,29.83,29.64,4,0,4,0.02
2013-11-8,61.1,46.9,37.5,36.5,33.1,29.9,80,61,34,30.04,29.82,4,0,6,0.00
2013-11-9,61.1,46.5,32.7,38.3,34.1,29.2,88,65,36,30.08,29.90,6,0,6,0.00
2013-11-10,73.4,54.8,40.8,45.9,38.5,32.2,81,57,32,29.95,29.77,4,0,8,0.00
2013-11-11,64.7,48.6,36.3,37.1,33.0,28.9,79,57,33,30.07,29.85,0,0,3,0.00
2013-11-12,61.7,44.7,35.6,41.8,34.2,21.0,85,68,45,30.13,29.76,7,0,8,0.02
2013-11-13,50.5,36.9,28.2,24.7,21.6,18.6,75,55,35,30.24,30.13,5,0,6,0.02
2013-11-14,62.4,41.9,28.2,32.0,26.1,22.5,82,57,30,30.18,30.04,4,0,8,0.00
2013-11-15,59.9,47.8,33.9,46.6,37.0,25.7,86,67,47,30.08,29.92,0,0,0,0.00
2013-11-16,75.5,58.1,50.3,61.0,52.4,46.1,91,82,60,29.99,29.91,2,0,2,0.00
2013-11-17,71.2,61.9,53.7,64.2,57.5,51.1,93,86,68,29.93,29.61,3,0,3,0.06
2013-11-18,82.0,67.0,54.5,65.7,55.3,33.9,93,69,43,29.68,29.51,6,0,10,0.10
2013-11-19,65.1,50.7,43.8,36.6,32.1,30.1,61,50,34,30.02,29.68,5,0,8,0.00
2013-11-20,62.2,46.8,38.4,39.3,33.5,28.1,78,61,42,30.15,30.02,5,0,10,0.00
2013-11-21,64.9,51.6,42.6,49.7,43.0,36.8,82,73,54,30.21,30.09,4,0,4,0.00
2013-11-22,71.7,59.2,48.0,60.6,53.2,43.7,91,81,68,30.10,29.79,4,0,5,0.02
2013-11-23,61.7,55.7,43.1,59.1,46.0,25.6,92,71,46,29.88,29.75,4,0,4,0.06
2013-11-24,47.8,36.0,27.3,26.2,15.0,9.2,61,43,27,30.25,29.88,5,0,6,0.00
2013-11-25,53.7,34.8,22.2,21.5,16.2,12.2,78,49,26,30.30,30.09,4,0,8,0.00
2013-11-26,65.8,47.0,38.1,64.0,38.3,17.4,95,74,43,30.07,29.28,9,0,14,0.42
2013-11-27,51.4,41.0,30.7,48.5,36.8,21.0,92,85,66,29.87,29.22,6,0,7,1.18
2013-11-28,57.0,36.1,24.8,31.5,23.6,18.7,80,62,34,30.20,29.88,0,0,4,0.00
2013-11-29,61.3,39.5,27.1,34.6,27.2,23.4,87,65,35,30.34,30.18,4,0,7,0.00
2013-11-30,57.7,39.5,28.9,37.6,29.4,23.0,83,68,46,30.35,30.08,4,0,4,0.00
2013-12-1,67.6,45.3,29.8,42.7,34.4,26.4,88,69,37,30.07,29.74,0,0,3,0.00
2013-12-2,69.9,48.9,40.2,49.8,40.5,36.0,88,75,46,29.74,29.54,0,0,2,0.00
2013-12-3,57.3,48.1,35.4,47.0,41.2,32.1,89,78,62,29.71,29.58,4,0,6,0.00
2013-12-4,64.2,57.5,53.7,57.3,52.6,46.7,90,84,75,29.81,29.69,4,0,4,0.00
2013-12-5,66.7,61.6,54.1,62.9,59.0,51.2,95,91,86,29.85,29.76,5,0,9,0.02
2013-12-6,79.5,70.5,64.7,65.9,63.5,61.3,92,79,61,29.80,29.69,10,2,12,0.00
2013-12-7,68.7,50.1,43.5,64.3,44.6,34.7,90,81,70,30.16,29.71,5,1,9,0.24
2013-12-8,43.5,36.9,34.7,34.7,32.2,29.8,91,84,66,30.17,30.00,4,0,4,0.08
2013-12-9,46.0,40.5,35.7,44.1,38.3,33.0,93,92,90,29.99,29.77,2,0,2,0.08
2013-12-10,49.6,44.3,32.0,45.5,40.8,27.7,93,88,72,30.04,29.63,4,0,4,0.59
2013-12-11,59.9,39.2,26.7,35.8,28.2,23.8,89,68,35,30.17,29.99,4,0,4,0.02
2013-12-12,57.9,38.4,29.3,30.4,24.8,20.5,84,62,30,30.13,29.98,4,0,5,0.00
2013-12-13,59.7,39.6,25.7,31.2,25.2,20.3,83,60,29,30.11,29.98,4,0,7,0.00
2013-12-14,47.3,42.6,40.1,41.6,35.6,27.7,91,78,51,30.01,29.49,6,0,8,0.55
2013-12-15,62.9,45.6,35.2,47.9,37.6,28.0,92,75,50,29.78,29.42,7,0,7,0.59
2013-12-16,64.4,43.9,30.0,40.9,32.9,26.3,87,68,40,29.88,29.78,5,0,6,0.00
2013-12-17,66.0,50.3,37.9,42.4,37.0,32.6,82,62,40,29.84,29.59,7,0,10,0.00
2013-12-18,60.8,43.6,33.6,37.5,26.0,22.8,75,52,29,30.00,29.74,10,0,10,0.00
2013-12-19,67.4,48.0,33.4,36.5,28.2,23.1,67,48,28,30.04,29.93,5,0,7,0.00
2013-12-20,69.0,55.7,45.6,54.9,45.8,32.7,82,70,53,29.96,29.83,3,0,6,0.00
2013-12-21,74.1,63.0,53.2,65.3,56.6,48.2,88,80,65,29.87,29.76,13,1,13,0.00
2013-12-22,79.1,70.7,64.9,67.4,64.7,61.8,91,82,65,29.83,29.74,10,2,17,0.39
2013-12-23,67.8,60.8,47.8,64.7,58.3,41.5,94,91,79,29.86,29.71,5,0,7,0.34
2013-12-24,57.9,43.9,30.9,41.4,31.4,16.1,80,63,39,30.16,29.83,5,0,7,0.34
2013-12-25,52.7,34.0,25.5,23.9,17.7,14.5,73,53,29,30.26,30.10,5,0,5,0.00
2013-12-26,60.8,38.9,28.0,38.7,29.3,20.5,86,70,41,30.10,29.95,2,0,5,0.04
2013-12-27,62.9,40.5,28.0,34.6,27.3,23.7,85,63,30,30.17,30.07,0,0,3,0.00
2013-12-28,65.3,44.0,27.5,36.7,30.7,23.5,87,63,28,30.11,29.87,5,0,5,0.00
2013-12-29,62.0,49.6,43.8,60.9,46.3,36.7,96,89,63,29.86,29.41,7,0,10,1.82
2013-12-30,55.9,46.2,37.5,46.5,40.4,35.4,93,81,64,29.85,29.64,4,0,4,0.00
2013-12-31,54.6,44.0,34.7,37.7,32.3,27.5,84,65,38,30.06,29.82,8,0,8,0.00
2014-1-1,60.4,42.6,32.7,34.0,29.2,26.1,85,62,32,30.06,29.71,5,0,8,0.00
2014-1-2,48.3,44.1,39.7,44.4,38.3,31.9,91,81,69,29.71,29.14,4,0,6,0.27